Temperature
14 14 14 14 14 14 14 14 14 14 14 14 14 14 14 14 14 14 14 14 14 13 13 13 13 13 13 13 13 13 13 13 13 13 13 13 13 13 13 13 12 12 12
14 14 14 14 14 14 14 14 14 14 14 14 14 14 14 14 14 14 14 14 13 13 13 13 13 13 13 13 13 13 13 13 13 13 13 13 13 13 12 12 12 12 12
13 13 13 13 14 14 14 14 14 14 14 14 14 14 14 14 14 14 14 14 13 13 13 13 13 13 13 13 13 13 13 13 13 13 13 13 12 12 12 12 12 12 12
13 13 13 13 13 13 13 13 13 13 13 13 13 13 13 14 14 14 13 13 13 13 13 13 13 13 13 13 12 12 12 12 12 12 12 12 12 12 12 12 12 12 12
12 12 12 12 13 13 13 13 13 13 13 13 13 13 13 13 13 13 13 13 13 13 13 13 13 13 12 12 12 12 12 12 12 12 12 12 12 12 12 12 12 12 11
12 12 12 12 12 12 12 12 13 13 13 13 12 12 13 13 13 13 13 13 13 13 13 13 13 12 12 12 12 12 12 12 12 12 12 12 11 11 11 11 11 11 11
11 11 11 12 12 12 12 12 12 12 12 12 12 12 12 12 12 13 13 12 12 13 12 12 12 12 12 12 12 12 12 11 11 11 11 11 11 11 11 11 11 11 11
11 11 11 11 11 11 11 11 11 12 12 11 11 11 11 12 12 12 12 12 12 12 12 12 12 12 12 12 12 12 11 11 11 11 11 11 11 11 11 11 11 11 11
10 10 10 11 11 11 11 11 11 11 11 11 11 11 11 11 11 12 12 12 12 12 12 12 12 12 11 11 11 11 11 11 11 11 10 10 11 10 10 10 10 10 10
10 10 10 10 10 10 10 10 10 11 10 10 10 10 10 11 11 11 11 11 11 11 11 11 11 11 11 11 11 11 11 11 10 10 10 10 10 10 10 10 10 10 10
9 9 10 10 10 10 10 10 10 10 10 10 10 10 10 10 10 10 10 10 11 11 11 11 11 11 11 11 11 10 10 10 10 10 10 9 9 9 9 9 9 9 9
9 9 9 9 9 9 9 9 9 9 9 9 9 9 9 9 9 9 9 9 10 10 10 10 10 10 10 10 10 10 10 9 9 9 9 9 9 9 9 9 9 8 8
8 8 8 8 9 8 9 9 9 9 9 9 9 9 9 9 9 8 8 8 9 9 9 9 9 9 9 9 9 9 9 9 9 9 8 8 8 8 8 8 8 8 8
7 8 8 8 8 8 8 8 8 8 8 8 8 8 8 8 8 8 8 8 8 8 8 8 8 8 8 8 8 8 8 8 8 8 8 8 7 7 7 7 7 7 7
7 7 7 7 7 7 8 8 7 8 8 8 8 7 7 7 7 7 7 7 7 6 6 7 7 7 7 7 7 7 7 7 7 7 7 7 7 7 7 7 6 6 7
6 6 6 7 7 7 7 7 7 7 7 7 7 7 7 7 7 6 6 6 6 5 5 6 6 6 6 6 6 6 7 7 7 7 6 6 6 6 6 6 6 6 6
6 6 6 6 6 6 6 6 6 6 6 6 6 6 6 6 6 6 6 5 5 5 5 5 5 5 6 6 6 6 6 6 6 6 6 6 6 6 5 5 5 5 5
5 5 6 6 6 6 6 6 6 6 6 6 6 6 6 6 5 5 5 5 5 4 4 4 4 5 5 5 5 5 5 5 5 6 5 5 5 5 5 5 4 4 5
5 5 5 5 5 5 5 5 5 5 5 5 5 5 5 5 5 5 5 4 4 4 3 3 3 4 4 4 4 4 4 4 4 5 4 4 4 4 4 4 4 4 4
5 5 5 5 5 5 5 5 5 5 5 5 4 4 4 4 4 4 4 3 3 3 3 3 3 3 3 3 3 3 3 4 4 4 3 3 3 3 3 3 3 3 3
5 5 4 4 4 4 4 4 4 4 4 4 4 4 4 3 3 3 3 3 2 2 2 2 2 2 2 2 2 2 2 2 3 3 3 3 3 3 3 3 2 3 2
4 4 4 4 4 4 4 3 4 4 3 3 3 3 3 3 3 3 2 2 2 1 1 1 1 1 1 1 1 1 1 1 1 1 1 2 2 2 2 2 2 2 2
4 4 4 4 3 3 3 3 3 3 3 3 3 3 2 2 2 2 2 2 1 1 1 0 0 0 0 -0 -0 -0 -0 -0 -0 0 0 1 1 1 1 1 1 1 1
3 3 3 3 3 3 3 3 3 3 2 2 2 2 2 2 2 2 1 1 1 1 0 0 -0 -0 -0 -1 -1 -1 -1 -1 -0 -0 -1 -1 0 0 1 1 1 1 1
3 3 3 3 3 2 2 2 2 2 2 2 1 1 1 1 1 1 1 0 0 0 -0 -0 -1 -1 -1 -1 -1 -1 -1 -1 -1 -1 -1 -2 -1 -1 -0 0 0 0 0
3 2 2 2 2 2 2 2 1 1 1 1 1 1 1 0 0 0 -0 -0 -0 -1 -1 -1 -1 -1 -1 -1 -1 -2 -2 -2 -2 -2 -2 -2 -2 -2 -2 -1 -0 -0 -0
Wind_Speed
3 4 4 5 5 6 6 6 6 6 5 6 6 6 6 7 8 8 8 10 10 11 11 10 10 9 9 9 8 8 8 8 7 7 7 6 6 7 7 7 7 7 7
4 4 4 5 5 6 7 7 6 6 5 5 6 6 7 7 8 9 9 10 10 11 11 11 10 10 9 9 9 8 8 8 8 8 7 8 8 7 8 8 8 9 9
5 4 4 5 6 7 7 6 6 5 5 5 6 6 6 7 7 8 9 9 9 10 11 11 11 10 10 10 10 10 10 10 9 9 9 9 8 8 8 9 9 9 10
6 4 4 5 6 6 5 5 5 5 5 5 5 5 5 5 7 8 8 8 8 9 9 11 11 11 10 11 11 11 10 10 10 9 9 9 9 9 10 10 10 10 10
6 4 4 5 5 4 5 6 5 5 5 5 5 5 5 5 5 6 6 7 9 9 9 10 11 12 11 11 11 11 10 10 9 9 8 9 9 10 11 11 11 11 11
5 4 4 4 4 4 5 5 5 5 4 5 5 5 5 5 4 5 6 6 7 9 9 9 9 9 10 10 10 10 10 10 9 9 9 10 10 11 11 12 12 12 12
4 3 3 4 4 5 5 5 5 5 5 3 3 3 3 5 5 5 5 5 5 7 7 8 8 7 7 9 10 10 10 11 11 11 11 11 12 12 12 13 13 13 13
3 3 3 3 4 4 5 5 5 4 4 4 3 2 3 3 4 5 5 6 6 4 5 7 7 7 7 6 7 9 10 11 12 12 12 13 13 14 14 14 14 14 14
3 2 2 3 3 4 4 5 5 5 5 4 4 3 3 5 2 2 4 5 5 4 4 4 5 7 7 6 6 8 9 10 12 13 14 14 15 15 15 15 15 15 14
3 3 2 2 3 3 3 4 4 4 5 4 3 3 2 2 3 2 2 3 3 4 4 4 4 5 6 6 6 7 9 10 12 13 15 15 16 16 16 16 16 15 15
2 2 2 1 2 2 3 3 3 4 4 4 3 2 2 2 2 3 3 2 2 3 4 4 3 3 5 6 6 7 8 9 11 13 14 16 16 16 16 17 16 16 16
2 3 2 1 1 2 2 2 2 3 3 3 3 3 2 2 2 2 3 3 3 3 3 3 3 2 3 3 4 6 7 9 11 13 14 16 16 16 16 17 17 17 17
2 3 2 2 2 1 2 1 1 2 2 3 3 3 3 2 1 2 3 3 3 2 2 2 2 1 1 2 4 6 7 9 11 12 14 15 16 16 16 17 18 18 18
2 2 2 2 2 2 1 0 1 1 1 2 2 2 2 1 1 2 2 2 3 3 2 3 1 1 2 3 5 6 6 9 11 12 13 14 15 15 16 17 18 18 18
2 2 2 2 2 1 1 0 0 0 1 1 2 2 2 1 1 1 1 2 3 4 5 3 2 1 3 4 6 6 7 9 11 12 13 14 15 16 16 16 17 17 17
1 2 2 2 2 1 1 1 0 1 1 1 1 1 1 1 1 1 1 2 2 4 5 2 2 3 4 5 7 7 8 10 10 12 13 13 14 15 16 16 15 15 15
1 1 1 1 1 1 1 1 1 1 1 1 1 1 1 1 1 1 1 2 2 3 6 4 2 3 4 4 6 7 8 8 9 12 13 14 14 14 14 13 13 13 14
1 1 1 1 1 1 1 1 1 1 1 0 0 1 0 0 1 1 2 2 3 3 4 6 4 3 4 5 5 5 6 7 8 11 13 13 13 13 13 13 13 13 13
1 1 1 1 1 1 1 1 0 0 0 0 0 1 1 0 1 2 2 2 2 3 3 4 5 4 3 3 5 5 6 5 7 10 11 12 12 12 13 12 13 13 13
1 1 1 1 1 1 1 1 0 0 0 1 1 1 1 2 2 3 2 3 3 3 3 4 5 4 4 3 3 5 6 5 6 7 8 10 11 12 12 12 12 12 13
1 1 1 2 2 1 1 0 0 0 0 1 1 1 1 2 3 3 3 3 2 3 3 4 5 4 4 4 4 4 6 6 6 4 4 5 6 6 7 10 11 11 12
2 2 2 1 2 2 3 2 1 0 0 1 1 2 2 2 3 4 5 4 4 4 4 4 5 6 6 5 5 5 6 6 5 2 4 7 5 6 6 6 10 12 12
1 2 2 1 2 2 3 2 2 1 0 1 1 2 2 2 3 3 4 5 5 6 6 5 6 6 6 5 5 6 6 6 7 5 5 7 5 6 6 8 12 12 12
0 1 1 1 2 3 4 3 3 2 1 1 2 2 2 3 3 3 3 3 3 4 5 4 4 5 5 5 5 6 7 7 6 4 3 6 5 6 7 6 11 11 11
0 1 1 1 1 3 4 4 3 1 1 2 2 2 2 3 5 5 3 3 4 4 5 6 6 6 7 7 6 4 4 5 6 5 2 3 4 5 6 5 7 10 11
0 0 1 1 1 2 3 3 2 1 1 2 2 3 4 5 5 6 3 3 4 5 5 5 5 6 5 6 6 4 4 5 5 4 2 2 4 4 4 3 4 5 7
Wind_Direction
226 228 223 219 215 213 208 204 204 204 211 216 219 218 221 223 226 228 237 240 241 243 242 243 242 241 242 243 244 248 252 256 257 259 262 269 272 272 272 273 274 277 280
224 225 229 225 220 216 214 210 210 212 216 218 226 225 226 225 228 229 232 239 240 238 237 240 243 244 244 246 246 250 253 256 259 261 264 267 273 273 272 271 273 275 277
227 222 227 229 226 222 217 215 214 215 221 221 228 227 226 225 226 228 229 232 236 237 236 239 242 244 248 250 250 252 253 255 258 262 266 268 269 268 271 271 274 275 276
235 223 226 232 231 221 214 215 214 217 223 226 231 230 226 225 227 226 225 227 229 231 234 236 239 242 246 248 252 253 255 256 257 259 263 264 266 267 268 269 272 274 277
245 232 232 235 226 220 222 223 217 212 221 227 232 232 228 226 225 221 220 224 224 224 227 235 239 241 244 246 252 255 257 255 255 257 261 265 268 270 271 270 271 273 275
258 240 238 236 223 222 225 224 223 215 218 222 233 238 233 229 220 219 220 220 221 224 226 230 236 242 243 245 248 254 260 260 257 257 259 263 267 270 271 272 273 273 275
272 251 247 233 221 224 227 221 221 221 222 201 216 246 248 231 225 222 214 216 221 223 225 227 226 229 239 243 248 255 262 266 266 265 264 264 266 269 271 272 274 273 274
291 269 240 239 234 229 227 224 218 223 220 194 192 207 249 256 238 225 213 218 225 214 216 224 222 225 230 232 245 253 260 265 271 271 270 270 269 269 269 270 272 275 274
305 289 265 244 237 231 232 226 216 219 227 211 198 194 202 226 238 233 220 220 216 214 220 216 221 227 227 227 237 253 258 262 269 273 273 272 272 271 271 271 271 273 275
313 302 290 263 243 238 243 240 225 220 216 218 212 223 227 196 198 243 251 232 219 222 225 226 222 228 225 227 237 249 258 262 269 275 278 277 275 274 273 273 273 273 272
315 314 306 287 263 252 247 241 232 218 217 219 210 207 226 240 226 218 252 258 251 238 231 228 220 223 227 233 243 254 259 265 272 276 280 281 279 277 276 276 275 274 273
321 332 338 334 311 280 263 250 227 213 210 215 217 209 200 203 211 216 238 249 251 250 243 232 222 221 240 246 255 271 271 275 278 281 281 282 282 282 282 281 279 278 276
318 322 335 340 336 319 304 273 212 212 203 197 212 225 222 229 218 222 232 252 262 267 254 243 223 196 292 285 286 290 283 284 284 285 285 285 286 285 285 283 281 279 278
298 312 325 328 324 325 323 302 208 221 194 193 202 212 219 240 240 242 231 230 260 264 248 249 250 226 324 303 298 294 290 287 286 285 286 287 289 288 286 283 281 280 278
306 323 321 321 318 325 333 261 228 221 189 201 200 204 219 232 233 249 250 227 232 259 262 243 246 284 314 302 296 294 290 289 288 287 286 287 288 289 288 285 283 280 278
307 321 319 322 327 342 2 81 187 187 171 221 202 176 220 245 238 239 243 250 237 242 259 258 245 283 297 304 299 295 288 292 289 288 288 289 290 291 288 284 283 284 282
316 304 312 328 348 359 19 65 62 80 87 60 79 128 225 245 239 266 259 252 249 242 259 276 260 276 282 289 302 301 294 290 291 289 290 290 290 289 289 289 289 287 286
324 318 313 345 4 3 19 71 55 61 95 89 83 115 313 338 283 269 256 253 252 251 250 272 276 273 272 283 287 289 299 299 294 291 290 288 289 288 288 289 289 290 290
342 358 360 3 356 349 16 35 69 85 108 204 200 201 249 235 266 271 270 266 263 267 249 264 278 273 273 289 295 296 293 289 298 297 293 287 287 290 290 290 290 291 291
33 36 25 7 358 3 20 15 70 87 2 322 299 263 247 238 247 257 266 262 264 265 266 269 277 284 283 293 294 295 300 296 298 300 296 294 293 292 290 290 289 289 289
27 27 31 9 360 356 2 28 156 98 349 343 336 330 315 305 298 286 283 276 273 265 268 276 281 289 289 302 298 299 298 303 295 280 289 293 292 286 289 290 288 287 287
21 21 13 2 359 357 8 10 25 69 33 347 325 325 318 317 322 319 309 304 292 279 277 273 279 285 287 287 291 295 298 303 296 289 302 297 290 285 283 283 292 296 296
23 17 356 355 349 343 360 5 14 65 40 315 301 310 326 332 338 308 311 322 316 309 291 271 274 279 286 290 290 290 289 290 286 292 295 286 286 282 284 291 297 296 296
11 345 339 341 344 346 360 13 29 50 43 356 333 312 302 306 309 315 316 319 313 310 302 291 275 282 288 288 280 281 284 287 283 278 267 278 286 284 292 288 289 294 297
8 338 345 353 350 342 1 12 19 42 30 1 348 340 326 307 323 332 327 313 314 316 329 327 318 313 313 312 308 302 301 301 297 293 273 271 287 297 288 279 287 295 299
226 337 347 356 347 330 343 356 12 61 21 350 347 344 342 339 337 335 326 314 310 314 323 326 324 323 321 322 327 309 291 289 295 294 289 293 292 312 301 277 281 295 301
Height
1516 1517 1518 1520 1521 1523 1524 1525 1527 1528 1529 1530 1531 1532 1532 1533 1534 1535 1535 1536 1536 1537 1537 1537 1538 1537 1537 1537 1537 1537 1537 1537 1537 1537 1536 1536 1536 1535 1535 1534 1534 1533 1532
1512 1513 1514 1516 1517 1519 1520 1521 1523 1524 1525 1526 1527 1528 1529 1530 1530 1531 1532 1533 1533 1534 1534 1534 1534 1535 1535 1535 1535 1535 1535 1535 1534 1534 1534 1534 1533 1533 1532 1532 1531 1530 1529
1507 1509 1510 1511 1513 1514 1516 1517 1519 1520 1521 1522 1523 1524 1525 1526 1526 1527 1528 1529 1529 1530 1530 1531 1531 1531 1532 1532 1532 1532 1532 1532 1531 1531 1531 1530 1530 1530 1529 1528 1528 1527 1526
1503 1504 1505 1507 1508 1510 1511 1512 1514 1515 1516 1517 1518 1519 1520 1521 1522 1523 1524 1524 1525 1525 1526 1527 1527 1528 1528 1528 1528 1528 1528 1528 1528 1528 1527 1527 1527 1526 1526 1525 1525 1524 1523
1498 1499 1500 1502 1504 1505 1506 1507 1508 1510 1511 1512 1513 1514 1515 1516 1517 1518 1519 1519 1520 1521 1522 1523 1523 1524 1524 1524 1524 1524 1524 1524 1524 1524 1523 1523 1523 1523 1522 1521 1521 1520 1519
1494 1495 1496 1497 1499 1500 1501 1502 1503 1504 1505 1507 1509 1509 1510 1511 1512 1513 1514 1515 1515 1516 1517 1518 1518 1519 1519 1520 1520 1520 1519 1520 1520 1519 1519 1519 1518 1518 1518 1517 1516 1516 1515
1489 1490 1491 1492 1493 1494 1495 1497 1498 1498 1500 1502 1503 1504 1504 1505 1506 1507 1508 1509 1510 1511 1512 1513 1513 1513 1514 1514 1514 1515 1515 1515 1515 1515 1514 1514 1514 1513 1513 1512 1512 1511 1510
1485 1486 1486 1488 1489 1489 1490 1491 1493 1493 1494 1496 1497 1498 1498 1499 1499 1501 1502 1503 1504 1505 1506 1507 1508 1508 1508 1508 1509 1509 1509 1510 1510 1510 1509 1509 1509 1508 1508 1507 1506 1506 1505
1481 1481 1482 1483 1484 1485 1485 1486 1487 1488 1489 1490 1492 1494 1493 1492 1494 1494 1496 1497 1498 1499 1500 1501 1502 1502 1503 1503 1503 1503 1504 1504 1504 1504 1504 1503 1503 1502 1502 1501 1500 1500 1499
1477 1477 1478 1478 1479 1480 1480 1481 1482 1482 1484 1484 1486 1487 1489 1489 1490 1489 1490 1491 1492 1493 1494 1494 1495 1496 1497 1497 1497 1497 1498 1498 1497 1497 1497 1497 1497 1496 1495 1495 1494 1493 1493
1473 1473 1473 1474 1474 1474 1475 1475 1476 1477 1478 1479 1480 1481 1483 1484 1485 1485 1484 1485 1486 1487 1488 1489 1489 1490 1490 1490 1491 1491 1491 1491 1491 1491 1490 1490 1490 1489 1489 1488 1487 1486 1486
1468 1469 1469 1469 1469 1470 1470 1470 1471 1471 1472 1474 1475 1476 1477 1478 1479 1480 1480 1480 1480 1481 1483 1483 1483 1483 1484 1484 1484 1484 1484 1484 1484 1484 1483 1483 1483 1482 1481 1480 1480 1479 1478
1464 1465 1465 1465 1465 1465 1465 1466 1466 1466 1467 1468 1470 1471 1472 1473 1475 1476 1476 1475 1476 1476 1476 1477 1477 1477 1478 1478 1477 1477 1477 1477 1477 1476 1476 1476 1475 1474 1474 1473 1472 1471 1471
1461 1461 1461 1461 1461 1461 1462 1462 1462 1462 1462 1463 1465 1466 1467 1468 1469 1471 1471 1471 1471 1470 1470 1470 1471 1471 1471 1471 1471 1471 1470 1470 1469 1469 1469 1468 1467 1467 1466 1465 1464 1463 1463
1458 1458 1458 1458 1458 1458 1458 1458 1458 1458 1459 1460 1461 1462 1463 1463 1464 1466 1466 1467 1468 1466 1464 1464 1465 1465 1466 1465 1465 1464 1463 1463 1462 1462 1461 1460 1460 1458 1458 1457 1456 1455 1455
1455 1455 1455 1455 1454 1454 1454 1455 1455 1455 1456 1456 1457 1457 1458 1459 1460 1461 1461 1462 1462 1462 1459 1459 1460 1460 1460 1459 1458 1457 1456 1456 1455 1454 1453 1452 1452 1451 1449 1448 1448 1447 1446
1453 1452 1452 1452 1451 1451 1451 1451 1452 1452 1452 1453 1453 1454 1454 1455 1456 1456 1456 1456 1457 1456 1455 1454 1455 1454 1454 1453 1452 1451 1450 1449 1448 1447 1446 1445 1444 1443 1441 1441 1440 1439 1438
1451 1450 1450 1450 1449 1449 1449 1449 1449 1449 1449 1449 1449 1450 1451 1451 1452 1452 1452 1451 1451 1451 1450 1449 1448 1448 1448 1447 1445 1444 1443 1442 1441 1439 1438 1437 1436 1435 1434 1433 1432 1431 1430
1449 1448 1448 1448 1447 1447 1447 1446 1446 1446 1446 1446 1446 1446 1447 1447 1447 1448 1447 1447 1446 1446 1445 1444 1442 1442 1442 1441 1439 1438 1437 1435 1434 1432 1431 1430 1429 1427 1426 1425 1424 1423 1423
1447 1446 1446 1446 1445 1445 1444 1444 1444 1444 1443 1443 1443 1443 1443 1443 1443 1443 1443 1442 1442 1441 1440 1439 1438 1437 1436 1435 1433 1431 1429 1428 1427 1426 1425 1423 1422 1421 1419 1418 1417 1416 1415
1445 1444 1444 1444 1444 1443 1442 1442 1441 1441 1441 1440 1440 1440 1440 1440 1440 1439 1439 1438 1437 1436 1436 1434 1433 1431 1430 1429 1428 1426 1424 1422 1420 1419 1418 1417 1415 1413 1412 1411 1410 1408 1407
1443 1443 1442 1442 1441 1441 1440 1440 1439 1439 1438 1438 1437 1437 1437 1436 1436 1435 1435 1434 1433 1432 1431 1430 1428 1427 1425 1424 1423 1421 1419 1416 1414 1414 1412 1410 1409 1407 1405 1404 1403 1402 1401
1442 1441 1441 1440 1440 1439 1439 1438 1438 1437 1436 1436 1435 1434 1433 1433 1432 1431 1430 1429 1429 1427 1427 1426 1424 1422 1420 1419 1418 1416 1415 1412 1410 1408 1406 1403 1402 1400 1399 1398 1397 1395 1394
1440 1440 1439 1439 1438 1437 1437 1436 1435 1434 1434 1433 1432 1431 1430 1429 1428 1427 1426 1425 1423 1422 1421 1420 1419 1417 1416 1415 1414 1413 1410 1408 1405 1404 1402 1399 1396 1394 1393 1391 1390 1389 1387
1439 1438 1437 1437 1436 1435 1434 1434 1433 1432 1431 1430 1429 1428 1427 1426 1425 1423 1422 1421 1419 1418 1417 1415 1414 1413 1412 1411 1410 1408 1406 1403 1400 1398 1397 1395 1391 1388 1386 1384 1383 1382 1381
1437 1436 1436 1435 1434 1433 1432 1431 1431 1430 1429 1428 1427 1426 1424 1423 1421 1420 1419 1417 1415 1413 1412 1410 1410 1408 1407 1406 1405 1404 1402 1400 1397 1394 1392 1391 1387 1385 1380 1377 1377 1376 1374